Total_Precipitation_Accumulation
0.20 0.22 0.31 0.50 0.60 0.58 0.54 0.59 0.83 0.84 0.74 0.67 0.61 0.65 0.69 0.72 0.69 0.61 0.58 0.59 0.64 0.67 0.67 0.64 0.60 0.63 0.66 0.73 0.84 0.99 1.12 1.10 0.95 0.77 0.64 0.58 0.54 0.47 0.46 0.47 0.49 0.56 0.63 0.67
0.09 0.11 0.19 0.34 0.44 0.46 0.43 0.42 0.51 0.58 0.56 0.45 0.42 0.47 0.48 0.49 0.44 0.41 0.39 0.36 0.34 0.35 0.36 0.36 0.32 0.29 0.29 0.37 0.53 0.78 1.03 1.01 0.79 0.62 0.50 0.45 0.46 0.45 0.42 0.41 0.46 0.51 0.51 0.55
0.10 0.08 0.15 0.37 0.40 0.38 0.37 0.30 0.31 0.36 0.36 0.32 0.34 0.39 0.39 0.41 0.42 0.32 0.26 0.25 0.25 0.24 0.22 0.21 0.21 0.19 0.21 0.29 0.41 0.58 0.69 0.65 0.56 0.46 0.43 0.47 0.49 0.44 0.43 0.43 0.44 0.46 0.45 0.47
0.11 0.14 0.37 0.63 0.56 0.47 0.43 0.24 0.17 0.18 0.20 0.22 0.33 0.35 0.34 0.33 0.32 0.31 0.22 0.16 0.16 0.16 0.15 0.17 0.18 0.21 0.24 0.28 0.35 0.40 0.43 0.44 0.39 0.37 0.39 0.41 0.43 0.43 0.49 0.54 0.52 0.50 0.51 0.51
0.19 0.26 0.48 0.59 0.52 0.51 0.50 0.34 0.15 0.12 0.12 0.12 0.12 0.14 0.16 0.16 0.14 0.14 0.10 0.08 0.07 0.07 0.06 0.08 0.07 0.08 0.09 0.12 0.14 0.15 0.15 0.16 0.16 0.16 0.18 0.21 0.22 0.28 0.40 0.46 0.49 0.51 0.55 0.56
0.24 0.32 0.47 0.39 0.24 0.26 0.39 0.46 0.13 0.07 0.07 0.05 0.03 0.07 0.09 0.10 0.10 0.07 0.05 0.05 0.04 0.03 0.04 0.04 0.04 0.03 0.02 0.03 0.03 0.03 0.03 0.03 0.05 0.06 0.07 0.08 0.11 0.15 0.21 0.23 0.28 0.38 0.41 0.43
0.25 0.44 0.64 0.47 0.26 0.24 0.42 0.42 0.09 0.04 0.03 0.02 0.01 0.02 0.04 0.07 0.08 0.06 0.05 0.06 0.04 0.04 0.04 0.04 0.04 0.03 0.03 0.03 0.03 0.03 0.03 0.03 0.04 0.04 0.04 0.05 0.06 0.08 0.12 0.13 0.18 0.22 0.26 0.32
0.33 0.61 0.83 0.65 0.43 0.36 0.28 0.12 0.04 0.01 0.01 0.01 0.01 0.01 0.02 0.04 0.06 0.05 0.05 0.05 0.04 0.03 0.03 0.04 0.03 0.03 0.03 0.03 0.02 0.03 0.03 0.03 0.03 0.03 0.04 0.04 0.05 0.07 0.08 0.10 0.12 0.14 0.16 0.21
0.25 0.47 0.53 0.48 0.36 0.26 0.18 0.08 0.01 0.00 0.00 0.01 0.01 0.01 0.01 0.03 0.03 0.03 0.04 0.03 0.03 0.02 0.02 0.03 0.03 0.03 0.03 0.03 0.03 0.02 0.03 0.02 0.03 0.03 0.04 0.05 0.06 0.08 0.08 0.08 0.10 0.12 0.15 0.22
0.06 0.11 0.16 0.20 0.19 0.12 0.10 0.06 0.01 0.00 0.00 0.00 0.00 0.01 0.01 0.02 0.04 0.04 0.03 0.03 0.03 0.03 0.03 0.03 0.03 0.04 0.04 0.03 0.03 0.02 0.02 0.02 0.03 0.03 0.04 0.05 0.06 0.08 0.09 0.09 0.10 0.14 0.20 0.26
0.06 0.04 0.05 0.09 0.10 0.09 0.06 0.03 0.01 0.00 0.00 0.00 0.00 0.00 0.01 0.02 0.04 0.05 0.04 0.04 0.04 0.05 0.04 0.04 0.04 0.05 0.06 0.06 0.04 0.03 0.02 0.02 0.02 0.03 0.03 0.04 0.04 0.05 0.06 0.07 0.09 0.16 0.23 0.29
0.06 0.04 0.04 0.05 0.05 0.04 0.03 0.01 0.01 0.00 0.00 0.00 0.00 0.00 0.00 0.01 0.02 0.03 0.04 0.03 0.03 0.03 0.03 0.02 0.02 0.02 0.03 0.03 0.04 0.04 0.03 0.03 0.02 0.03 0.04 0.04 0.05 0.05 0.06 0.07 0.11 0.14 0.15 0.17
0.03 0.03 0.03 0.03 0.03 0.02 0.01 0.01 0.00 0.00 0.00 0.00 0.00 0.00 0.00 0.01 0.02 0.03 0.04 0.02 0.02 0.02 0.02 0.01 0.01 0.01 0.01 0.01 0.01 0.02 0.02 0.03 0.03 0.03 0.04 0.05 0.06 0.08 0.10 0.09 0.07 0.06 0.07 0.09
0.01 0.02 0.02 0.02 0.02 0.02 0.01 0.01 0.00 0.00 0.00 0.00 0.00 0.00 0.00 0.01 0.01 0.02 0.03 0.02 0.02 0.02 0.02 0.02 0.01 0.01 0.01 0.01 0.01 0.00 0.01 0.01 0.02 0.05 0.07 0.08 0.09 0.13 0.18 0.22 0.20 0.12 0.07 0.06
0.01 0.02 0.01 0.01 0.01 0.01 0.01 0.01 0.01 0.00 0.00 0.00 0.00 0.00 0.00 0.00 0.00 0.01 0.02 0.02 0.02 0.03 0.02 0.02 0.02 0.02 0.02 0.01 0.01 0.01 0.01 0.02 0.05 0.10 0.12 0.11 0.12 0.17 0.19 0.16 0.13 0.12 0.11 0.09
0.02 0.01 0.01 0.01 0.01 0.01 0.01 0.01 0.01 0.01 0.01 0.00 0.00 0.00 0.01 0.00 0.00 0.00 0.01 0.02 0.02 0.02 0.02 0.02 0.03 0.03 0.02 0.01 0.01 0.01 0.02 0.02 0.05 0.10 0.13 0.11 0.10 0.12 0.12 0.11 0.09 0.10 0.12 0.13
0.03 0.02 0.01 0.01 0.01 0.01 0.01 0.01 0.01 0.01 0.01 0.01 0.01 0.01 0.01 0.01 0.01 0.01 0.01 0.01 0.02 0.03 0.02 0.02 0.03 0.03 0.03 0.02 0.03 0.03 0.03 0.04 0.05 0.08 0.09 0.08 0.08 0.09 0.10 0.11 0.12 0.13 0.13 0.14
0.03 0.02 0.02 0.02 0.01 0.01 0.01 0.01 0.01 0.01 0.01 0.01 0.01 0.01 0.02 0.02 0.02 0.03 0.02 0.02 0.03 0.04 0.04 0.04 0.04 0.04 0.04 0.04 0.05 0.05 0.06 0.08 0.09 0.11 0.10 0.08 0.09 0.12 0.15 0.15 0.14 0.16 0.17 0.17
0.02 0.02 0.02 0.02 0.01 0.01 0.01 0.01 0.01 0.01 0.01 0.01 0.01 0.02 0.02 0.03 0.03 0.02 0.03 0.03 0.04 0.03 0.03 0.04 0.04 0.04 0.04 0.04 0.06 0.07 0.08 0.09 0.11 0.12 0.12 0.11 0.12 0.15 0.17 0.17 0.17 0.18 0.19 0.21
0.03 0.03 0.03 0.02 0.01 0.01 0.01 0.01 0.01 0.01 0.01 0.01 0.02 0.02 0.03 0.03 0.04 0.04 0.04 0.05 0.05 0.04 0.03 0.03 0.04 0.05 0.05 0.06 0.08 0.09 0.10 0.12 0.15 0.16 0.16 0.15 0.16 0.18 0.18 0.18 0.20 0.21 0.22 0.23
0.04 0.03 0.02 0.02 0.01 0.01 0.01 0.01 0.01 0.02 0.02 0.02 0.02 0.03 0.03 0.04 0.04 0.05 0.06 0.06 0.05 0.05 0.04 0.05 0.04 0.04 0.05 0.07 0.10 0.12 0.14 0.15 0.16 0.17 0.17 0.16 0.17 0.19 0.21 0.21 0.22 0.24 0.24 0.24
0.06 0.05 0.04 0.03 0.02 0.02 0.02 0.01 0.01 0.02 0.02 0.02 0.03 0.03 0.03 0.03 0.03 0.04 0.05 0.06 0.06 0.07 0.07 0.07 0.07 0.07 0.09 0.11 0.09 0.10 0.12 0.15 0.17 0.19 0.19 0.19 0.20 0.23 0.24 0.26 0.27 0.29 0.29 0.31
0.08 0.07 0.06 0.05 0.04 0.04 0.04 0.03 0.03 0.02 0.03 0.03 0.04 0.04 0.05 0.05 0.05 0.05 0.05 0.06 0.07 0.09 0.09 0.08 0.10 0.13 0.16 0.13 0.10 0.11 0.12 0.13 0.15 0.18 0.22 0.26 0.28 0.29 0.28 0.27 0.28 0.30 0.32 0.36
0.09 0.08 0.07 0.06 0.06 0.06 0.06 0.06 0.05 0.04 0.04 0.04 0.05 0.05 0.06 0.07 0.07 0.08 0.09 0.10 0.11 0.12 0.11 0.11 0.13 0.17 0.19 0.15 0.14 0.14 0.15 0.16 0.17 0.18 0.20 0.24 0.28 0.29 0.29 0.30 0.30 0.31 0.32 0.33
0.07 0.07 0.08 0.08 0.08 0.08 0.07 0.07 0.07 0.07 0.07 0.08 0.08 0.08 0.08 0.09 0.11 0.11 0.11 0.12 0.14 0.14 0.14 0.15 0.17 0.19 0.18 0.17 0.18 0.19 0.20 0.23 0.24 0.26 0.26 0.27 0.29 0.31 0.32 0.34 0.37 0.39 0.38 0.36
0.06 0.07 0.08 0.10 0.09 0.09 0.09 0.09 0.08 0.08 0.09 0.10 0.11 0.11 0.11 0.11 0.11 0.10 0.10 0.12 0.14 0.15 0.16 0.17 0.17 0.18 0.19 0.22 0.24 0.24 0.24 0.25 0.26 0.28 0.30 0.32 0.34 0.36 0.39 0.42 0.42 0.46 0.46 0.43
0.06 0.06 0.08 0.09 0.10 0.10 0.10 0.10 0.10 0.09 0.10 0.11 0.11 0.10 0.11 0.13 0.14 0.14 0.14 0.14 0.15 0.18 0.20 0.21 0.23 0.25 0.26 0.28 0.27 0.28 0.29 0.30 0.31 0.31 0.33 0.36 0.38 0.40 0.42 0.46 0.49 0.52 0.53 0.52